This is the latest recevied weather packets stored in our database for station/object K5UBE. If no packets are shown the sender has not sent any weather packets the latest 1 day(s).
| Time | Temp. | Humidity | Pressure | Rain* | Wind** | Luminosity | Snow |
|---|---|---|---|---|---|---|---|
| 1778026472 | 24.44° C | 26% | 1009 hPa | 0 mm | - | - | - |
| 1778026169 | 24.44° C | 25% | 1009 hPa | 0 mm | - | - | - |
| 1778024958 | 24.44° C | 26% | 1009.2 hPa | 0 mm | - | - | - |
| 1778023445 | 25° C | 26% | 1009.2 hPa | 0 mm | - | - | - |
| 1778023141 | 25.56° C | 25% | 1009.2 hPa | 0 mm | - | - | - |
| 1778022839 | 25° C | 26% | 1009.3 hPa | 0 mm | - | - | - |
| 1778021628 | 25° C | 26% | 1009.5 hPa | 0 mm | - | - | - |
| 1778021021 | 25° C | 26% | 1009.6 hPa | 0 mm | - | - | - |
| 1778020718 | 25° C | 26% | 1009.7 hPa | 0 mm | - | - | - |
| 1778020415 | 25.56° C | 25% | 1009.8 hPa | 0 mm | - | - | - |
| 1778019807 | 25° C | 27% | 1009.7 hPa | 0 mm | - | - | - |
| 1778018898 | 25° C | 27% | 1009.9 hPa | 0 mm | - | - | - |
| 1778014356 | 24.44° C | 28% | 1011.5 hPa | 0 mm | - | - | - |
| 1778014052 | 24.44° C | 28% | 1011.2 hPa | 0 mm | - | - | - |
| 1778013750 | 23.89° C | 28% | 1011.5 hPa | 0 mm | - | - | - |
| 1778013144 | 23.89° C | 28% | 1011.8 hPa | 0 mm | - | - | - |
| 1778012536 | 23.89° C | 28% | 1012 hPa | 0 mm | - | - | - |
| 1778010718 | 23.33° C | 27% | 1012.1 hPa | 0 mm | - | - | - |
| 1778009505 | 23.33° C | 28% | 1012.2 hPa | 0 mm | - | - | - |
| 1778008901 | 23.33° C | 27% | 1012.2 hPa | 0 mm | - | - | - |
| 1778008599 | 22.22° C | 29% | 1012.3 hPa | 0 mm | - | - | - |
| 1778008297 | 22.78° C | 28% | 1012.3 hPa | 0 mm | - | - | - |
| 1778006171 | 21.11° C | 30% | 1012.9 hPa | 0 mm | - | - | - |
| 1778005869 | 21.11° C | 31% | 1012.9 hPa | 0 mm | - | - | - |
| 1778001627 | 18.89° C | 35% | 1013.5 hPa | 0 mm | - | - | - |
* Rain latest hour (hover to see other rain measurements)
** Current wind speed in m/s (hover to see current wind gust speed)